Location: Songkhla
(7.2000°N, 100.6000°E)
Time: 21:19:53
(UTC+07:00)

ISS - Visible Passes

Search period start: 12 December 2017 00:00
Search period end: 22 December 2017 00:00
Orbit: 403 x 407 km, 51.6° (Epoch: 12 December)

Date Brightness Start Highest point End Pass type
(mag) Time Alt. Az. Time Alt. Az. Time Alt. Az.
17 Dec -1.4 19:21:04 10° NNW 19:21:32 13° NNW 19:21:32 13° NNW visible
18 Dec -2.0 18:29:58 10° NNE 18:31:51 14° NE 18:33:44 10° E visible
18 Dec -0.9 20:05:55 10° W 20:07:52 17° WSW 20:07:52 17° WSW visible
19 Dec -2.7 19:12:48 10° NW 19:15:55 46° SW 19:19:04 10° SSE visible
21 Dec -0.3 19:06:13 10° W 19:07:40 12° SW 19:09:07 10° SSW visible
